Вороново

Россия / Московская область     55°19′15″N   37°09′30″E
темп.,
°C
ветер,
м/с
пор.,
м/с
влажн.,
%
обл.,
%
осадки,
мм/ч
давл.,
гПа
погр.,
м
17 мая, пн
пн1700:00+13в118574 0.0 101311
03:00+12в228725 0.0 101418
06:00+13в278688 0.0 1014149
09:00+20в596664 0.1 1013492
12:00+24вюв68615 0.0 1012945
15:00+26вюв695530 0.0 10101403
18:00+25юв510635 0.2 1009996
21:00+20юв515754 0.2 1008682
18 мая, вт
вт1800:00+18вюв415860 0.0 1008452
03:00+16юв313850 0.0 1009340
06:00+16вюв412780 0.0 1008308
09:00+21юв5105610 0.0 1008491
12:00+25юв6104432 0.0 1008907
15:00+26вюв610465 0.0 10071330
18:00+23вюв6125865 0.0 10061033
21:00+21вюв6156945 0.0 1006920
19 мая, ср
ср1900:00+17юв3109136 0.1 1007265
03:00+14в22975 0.1 100740
06:00+16юв31090100 0.0 1007315
09:00+20ююв366066 0.0 1007717
12:00+23вюв585777 0.0 10071572
15:00+24юв485254 0.1 10061749
18:00+20ююв378137 1.8 1005303
21:00+16ююв239419 2.7 100660
20 мая, чт
чт2000:00+14юв249644 0.0 100681
03:00+14вюв269776 0.0 1006134
06:00+14вюв4129591 0.2 1007498
09:00+17ююв597794 0.3 1005993
12:00+18ююв6106859 0.3 10061345
15:00+19ююв685994 0.5 10061635
18:00+17ююв487998 0.8 1005897
21:00+12ю28965 1.4 1006211
21 мая, пт
пт2100:00+11ююз499843 0.0 1006537
03:00+9ююз51190100 0.1 1007985
06:00+8ююз51194100 0.1 10071032
09:00+9ююз61292100 0.3 10091040
12:00+9юз61190100 0.1 10121127
15:00+10зюз5984100 0.1 10141152
18:00+12з377899 0.1 1017831
21:00+9з229474 0.1 101923